GW0602 Weather Reports


time (UTC)temp
F
wind
direction
speed
knots
gust
knots
rain 1hr
in
rain 24hr
in
rain mn
in
humidity
%
barometer
mb
20260502151554 45 136 0.9 5.2 0.00 0.00 0.00 67 1023.4
20260502123051 37 136 0.9 2.6 0.00 0.00 0.00 66 1023.0
20260502121546 37 136 1.7 2.6 0.00 0.00 0.00 63 1022.9
20260502114554 36 136 0.9 1.7 0.00 0.00 0.00 62 1022.8
20260502113051 36 136 0.0 0.9 0.00 0.00 0.00 61 1022.8
20260502111548 37 0 0.0 1.7 0.00 0.00 0.00 59 1022.8
20260502110047 39 0 0.0 2.6 0.00 0.00 0.00 56 1022.9
20260502104545 39 136 0.0 2.6 0.00 0.00 0.00 55 1022.9
20260502103102 39 136 0.9 3.5 0.00 0.00 0.00 55 1022.9
20260502101559 39 136 0.0 1.7 0.00 0.00 0.00 59 1022.8
20260502100113 39 136 1.7 2.6 0.00 0.00 0.00 60 1022.8
20260502090105 41 136 2.6 5.2 0.00 0.00 0.00 50 1022.4
20260502070053 43 0 0.0 0.0 0.00 0.00 0.00 49 1022.5
20260502064557 43 0 0.0 0.9 0.00 0.00 0.00 52 1022.5
20260502063049 42 136 0.0 0.9 0.00 0.00 0.00 58 1022.4
20260502061600 41 0 0.0 1.7 0.00 0.00 0.00 50 1022.3
20260502060050 43 136 2.6 5.2 0.00 0.00 0.00 48 1022.1
20260502054548 44 136 0.0 1.7 0.00 0.00 0.00 54 1022.2
20260502053052 44 0 0.0 0.9 0.00 0.00 0.00 55 1022.2
20260502051552 45 0 0.0 0.9 0.00 0.00 0.00 49 1022.1
20260502050048 47 0 0.0 3.5 0.00 0.00 0.00 40 1022.1
20260502044553 47 136 2.6 6.1 0.00 0.00 0.00 41 1022.1
20260502043059 48 136 1.7 6.1 0.00 0.00 0.00 38 1022.0
20260502041553 49 136 3.5 7.0 0.00 0.00 0.00 37 1021.9
20260502040054 49 136 2.6 7.0 0.00 0.00 0.00 37 1021.8
20260502034547 49 136 3.5 6.1 0.00 0.00 0.00 38 1021.7
20260502033050 48 136 3.5 6.1 0.00 0.00 0.00 39 1021.5
20260502031548 49 136 2.6 6.1 0.00 0.00 0.00 37 1021.2
20260502030044 48 136 5.2 7.0 0.00 0.00 0.00 36 1021.0
20260502024551 48 136 4.3 6.1 0.00 0.00 0.00 36 1020.8
20260502023045 50 136 3.5 6.1 0.00 0.00 0.00 33 1020.8
20260502021546 52 136 1.7 2.6 0.00 0.00 0.00 30 1020.7
20260502020049 52 136 0.9 2.6 0.00 0.00 0.00 34 1020.5
20260502014549 53 136 0.0 1.7 0.00 0.00 0.00 36 1020.5
20260502013047 54 136 0.9 2.6 0.00 0.00 0.00 39 1020.5
20260502011548 54 136 1.7 5.2 0.00 0.00 0.00 39 1020.4
20260502010048 56 0 0.0 2.6 0.00 0.00 0.00 41 1020.5
20260502004542 56 136 0.0 1.7 0.00 0.00 0.00 42 1020.5
20260502003049 55 136 0.0 1.7 0.00 0.00 0.00 42 1020.6
20260502001548 57 136 0.9 1.7 0.00 0.00 0.00 38 1020.7
20260502000049 57 136 0.0 2.6 0.00 0.00 0.00 44 1020.8
20260501234548 57 136 0.0 2.6 0.00 0.00 0.00 46 1020.9
20260501233044 57 136 1.7 4.3 0.00 0.00 0.00 49 1021.0
20260501231553 58 136 0.9 3.5 0.00 0.00 0.00 35 1020.9
20260501230058 58 136 0.0 3.5 0.00 0.00 0.00 32 1021.0
20260501224548 58 136 0.9 3.5 0.00 0.00 0.00 35 1020.9
20260501223054 58 136 0.9 4.3 0.00 0.00 0.00 28 1021.1
20260501221546 58 136 0.9 3.5 0.00 0.00 0.00 28 1021.3
20260501220048 56 136 1.7 5.2 0.00 0.00 0.00 32 1021.5
20260501214555 55 136 2.6 4.3 0.00 0.00 0.00 45 1021.7
20260501213051 55 136 2.6 6.1 0.00 0.00 0.00 35 1021.9
20260501211557 56 136 1.7 3.5 0.00 0.00 0.00 33 1022.1
20260501210049 56 136 0.9 3.5 0.00 0.00 0.00 31 1022.1
20260501204616 56 136 0.9 5.2 0.00 0.00 0.00 33 1022.2
20260501203051 55 136 2.6 6.1 0.00 0.00 0.00 38 1022.3
20260501201549 56 136 0.9 2.6 0.00 0.00 0.00 32 1022.4
20260501200050 55 136 0.9 3.5 0.00 0.00 0.00 41 1022.5
20260501194554 55 136 0.9 3.5 0.00 0.00 0.00 34 1022.6
20260501193047 54 136 0.9 1.7 0.00 0.00 0.00 38 1022.6
20260501191545 53 136 0.9 3.5 0.00 0.00 0.00 49 1022.8
20260501190041 52 136 1.7 3.5 0.00 0.00 0.00 49 1022.9
20260501184550 53 136 1.7 3.5 0.00 0.00 0.00 46 1023.0
20260501183053 52 136 1.7 3.5 0.00 0.00 0.00 36 1023.1
20260501181552 51 136 2.6 3.5 0.00 0.00 0.00 40 1023.2
20260501180048 50 136 1.7 6.1 0.00 0.00 0.00 48 1023.3
20260501174547 50 136 1.7 3.5 0.00 0.00 0.00 42 1023.4
20260501173052 48 136 2.6 6.1 0.00 0.00 0.00 46 1023.4
20260501171546 47 136 1.7 3.5 0.00 0.00 0.00 45 1023.6
20260501170049 46 136 1.7 3.5 0.00 0.00 0.00 51 1023.6
20260501164553 45 136 1.7 3.5 0.00 0.00 0.00 60 1023.6
20260501163048 44 136 1.7 5.2 0.00 0.00 0.00 71 1023.7
20260501161545 43 136 1.7 5.2 0.00 0.00 0.00 72 1023.7
20260501160056 42 136 1.7 3.5 0.00 0.00 0.00 71 1023.8
20260501154545 0 0.0 0.0 0.00 0.00 0.00 1023.8
20260501153052 41 136 1.7 4.3 0.00 0.00 0.00 75 1023.8